Weather observations for the past three days for
O'Neill / Baker Field
Imperial (Metric)
Date Time (cdt) Wind (mph) Vis. (mi.) Weather Sky Cond. Temperature (ºF) Relative Humidity Wind Chill (°F) Heat Index (°F) Pressure Precipitation (in)
Air Dwpt 6 hour altimeter (in) sea level (mb) 1 hr 3 hr 6 hr
Max. Min.
03 14:15 W 6 10.00 Fair CLR 69.3 33.8 27% 29.89 0.0
03 13:55 Calm 10.00 Fair CLR 67.8 32.5 27% 29.9 0.0
03 13:35 N 13 G 17 10.00 Fair CLR 67.1 32.2 27% 29.91 0.0
03 13:15 Calm 10.00 Fair CLR 66.9 33.8 29% 29.92 0.0
03 12:55 NW 5 10.00 Fair CLR 66.9 34.7 67.1 44.8 30% 29.93 0.0
03 12:35 NW 8 10.00 Fair CLR 66 34.5 31% 29.93 0.0
03 12:15 N 6 10.00 Fair CLR 65.7 35.1 32% 29.94 0.0
03 11:55 Calm 10.00 Fair CLR 64 34.2 33% 29.95 0.0
03 11:35 E 3 10.00 Fair CLR 63.5 34.3 34% 29.95 0.0
03 11:15 N 3 10.00 Fair CLR 64.2 35.4 34% 29.95 0.0
03 10:55 N 7 10.00 Fair CLR 63.3 35.6 36% 29.95 0.0
03 10:35 N 6 10.00 Fair CLR 62.2 36.9 39% 29.95 0.0
03 10:15 N 5 10.00 Fair CLR 60.8 36.7 41% 29.95 0.0
03 09:55 N 9 10.00 Fair CLR 60.4 37.4 43% 29.94 0.0
03 09:35 N 8 10.00 Fair CLR 57.7 36.5 45% 29.95 0.0
03 09:15 N 8 10.00 Fair CLR 57.4 36.9 46% 29.93 0.0
03 08:55 N 8 10.00 Fair CLR 56.5 37.2 49% 29.94 0.0
03 08:35 N 10 10.00 Fair CLR 54.9 37.2 52% 29.95 0.0
03 08:15 N 10 10.00 Fair CLR 52.7 37.4 56% 29.93 0.0
03 07:55 NW 7 10.00 Fair CLR 50 37.4 62% 48 29.92 0.0
03 07:15 NW 8 10.00 Fair CLR 46.8 35.6 65% 43 29.92 0.0
03 06:55 NW 3 10.00 Fair CLR 45 34.3 57.2 44.8 66% 29.9 0.0
03 06:35 NW 6 10.00 Fair CLR 45.7 34.2 64% 43 29.91 0.0
03 06:15 Calm 10.00 Fair CLR 45 34.2 66% 29.9 0.0
03 05:55 W 3 10.00 Fair CLR 45.5 33.8 64% 29.9 0.0
03 05:35 W 5 10.00 Fair CLR 46.6 34.2 62% 45 29.89 0.0
03 05:15 W 5 10.00 Fair CLR 45.9 34.2 64% 44 29.9 0.0
03 04:55 NW 3 10.00 Fair CLR 50 34.2 55% 29.88 0.0
03 04:35 NW 7 10.00 Fair CLR 50 34.9 56% 48 29.89 0.0
03 04:15 NW 8 10.00 Fair CLR 49.8 34.2 55% 47 29.89 0.0
03 03:55 NW 7 10.00 Fair CLR 48.4 34 58% 46 29.88 0.0
03 03:35 W 7 10.00 Fair CLR 48 33.4 57% 45 29.89 0.0
03 03:15 NW 7 10.00 Fair CLR 50.9 34 52% 29.88 0.0
03 02:55 NW 6 10.00 Fair CLR 51.6 33.6 50% 29.88 0.0
03 02:35 NW 7 10.00 Fair CLR 52.3 33.1 48% 29.88 0.0
03 02:15 NW 9 10.00 Fair CLR 54.7 32 42% 29.87 0.0
03 01:55 NW 12 10.00 Fair CLR 56.3 31.1 38% 29.87 0.0
03 01:35 W 10 10.00 Fair CLR 54 32 43% 29.86 0.0
03 01:15 W 14 G 21 10.00 Fair CLR 56.7 31.8 39% 29.85 0.0
03 00:55 W 20 G 24 10.00 Fair CLR 55.9 32 73 52.3 40% 29.84 0.0
03 00:35 W 9 10.00 Fair CLR 53.6 32.9 46% 29.83 0.0
03 00:15 SW 8 10.00 Fair CLR 52.5 33.3 48% 29.82 0.0
02 23:55 SW 7 10.00 Fair CLR 52.9 33.4 48% 29.83 0.0
02 23:35 SW 8 10.00 Partly Cloudy SCT120 52.9 33.8 48% 29.83 0.0
02 23:15 SW 6 10.00 Partly Cloudy SCT110 54 33.1 45% 29.83 0.0
02 22:55 S 8 10.00 Fair CLR 54.7 33.3 44% 29.83 0.0
02 22:35 SW 7 10.00 Partly Cloudy SCT120 56.5 33.1 41% 29.83 0.0
02 22:15 SW 9 10.00 Partly Cloudy SCT120 57.4 32.9 40% 29.84 0.0
02 21:55 SW 6 10.00 Fair CLR 58.1 32.5 38% 29.84 0.0
02 21:35 S 8 10.00 Fair CLR 58.6 32.2 37% 29.84 0.0
02 21:15 S 9 10.00 Fair CLR 60.8 32 34% 29.84 0.0
02 20:55 S 9 10.00 Fair CLR 62.6 32 32% 29.83 0.0
02 20:35 S 9 10.00 Fair CLR 62.1 32 32% 29.84 0.0
02 20:15 S 6 10.00 Fair CLR 62.8 32.4 32% 29.85 0.0
02 19:55 SW 6 10.00 Fair CLR 66 32.2 28% 29.85 0.0
02 19:35 SW 8 10.00 Fair CLR 68.5 31.8 26% 29.86 0.0
02 19:15 SW 9 10.00 Fair CLR 71.6 29.8 21% 29.87 0.0
02 18:55 SW 15 10.00 Fair CLR 73.4 28.8 73.6 63.5 19% 29.88 0.0
02 18:35 SW 10 10.00 Fair CLR 73.4 27.5 18% 29.89 0.0
02 18:15 SW 10 10.00 Fair CLR 73.4 27.5 18% 29.9 0.0
02 17:55 SW 9 10.00 Fair CLR 72.9 27.1 18% 29.9 0.0
02 17:35 SW 12 G 21 10.00 Fair CLR 72.5 26.4 18% 29.91 0.0
02 17:15 SW 9 G 17 10.00 Fair CLR 72.5 27.7 19% 29.93 0.0
02 16:55 SW 14 10.00 Fair CLR 71.4 27 19% 29.94 0.0
02 16:35 SW 9 G 16 10.00 Fair CLR 70.7 27.1 20% 29.95 0.0
02 16:15 SW 17 G 25 10.00 Fair CLR 70.7 28 20% 29.97 0.0
02 15:55 SW 12 G 17 10.00 Fair CLR 70 27.3 20% 29.98 0.0
02 15:35 W 7 G 18 10.00 Fair CLR 68.7 25.7 20% 29.99 0.0
02 15:15 SW 16 G 24 10.00 Fair CLR 68.4 25.7 20% 30 0.0
02 14:55 SW 14 G 18 10.00 Fair CLR 67.5 25.2 20% 30.01 0.0
02 14:35 SW 7 G 10 10.00 Fair CLR 66.9 23.4 19% 30.02 0.0
02 14:15 SW 12 G 18 10.00 Fair CLR 66.2 22.3 19% 30.04 0.0
02 13:55 SW 10 G 17 10.00 Fair CLR 66 23.4 20% 30.05 0.0
02 13:35 W 12 G 17 10.00 Fair CLR 63.9 19.9 18% 30.06 0.0
02 13:15 SW 8 G 16 10.00 Fair CLR 64.4 21 19% 30.07 0.0
02 12:55 W 9 G 16 10.00 Fair CLR 63.7 20.1 63.9 34 19% 30.08 0.0
02 12:35 W 8 10.00 Fair CLR 63 16.3 16% 30.09 0.0
02 12:15 SW 14 G 20 10.00 Fair CLR 62.8 19.2 19% 30.1 0.0
02 11:55 W 12 G 17 10.00 Fair CLR 62.2 20.5 20% 30.1 0.0
02 11:35 W 9 G 17 10.00 Fair CLR 62.2 23.4 23% 30.1 0.0
02 11:15 W 10 G 17 10.00 Fair CLR 60.8 23.4 24% 30.11 0.0
02 10:55 W 10 10.00 Fair CLR 60.1 23.7 25% 30.12 0.0
02 10:35 SW 13 G 18 10.00 Fair CLR 58.8 25.9 28% 30.12 0.0
02 10:15 W 12 G 21 10.00 Fair CLR 58.1 27.3 31% 30.13 0.0
02 09:55 W 13 10.00 Fair CLR 57.2 29.3 35% 30.13 0.0
02 09:35 W 14 10.00 Fair CLR 54.9 29.8 38% 30.13 0.0
02 09:15 W 13 G 17 10.00 Fair CLR 52.7 31.1 44% 30.14 0.0
02 08:55 W 14 10.00 Fair CLR 49.8 30.6 48% 45 30.14 0.0
02 08:35 W 12 10.00 Fair CLR 46.2 31.1 56% 41 30.14 0.0
02 08:15 W 13 10.00 Fair CLR 43 30.6 62% 37 30.14 0.0
02 07:55 W 9 10.00 Fair CLR 40.1 29.3 65% 35 30.14 0.0
02 07:35 W 10 10.00 Fair CLR 37.8 28.4 69% 31 30.14 0.0
02 07:15 W 13 10.00 Fair CLR 36.1 27.3 70% 28 30.14 0.0
02 06:55 W 9 10.00 Fair CLR 33.8 26.6 36.3 29.8 75% 27 30.14 0.0
02 06:35 W 8 10.00 Fair CLR 32.2 25.7 77% 26 30.14 0.0
02 06:15 SW 8 10.00 Fair CLR 32.2 25.5 76% 26 30.15 0.0
02 05:55 SW 7 10.00 Fair CLR 32.5 25.5 75% 27 30.15 0.0
02 05:35 SW 7 10.00 Fair CLR 32.9 25.3 74% 27 30.15 0.0
02 05:15 SW 8 10.00 Fair CLR 32.5 24.8 73% 26 30.15 0.0
02 04:35 SW 5 10.00 Fair CLR 30.7 25.5 81% 27 30.16 0.0
02 04:15 SW 5 10.00 Fair CLR 30.6 25 80% 26 30.16 0.0
02 03:55 W 3 10.00 Fair CLR 33.6 24.8 70% 30.15 0.0
02 03:35 W 3 10.00 Fair CLR 33.3 25 72% 30.16 0.0
02 03:15 W 5 10.00 Fair CLR 33.1 25.3 73% 29 30.16 0.0
02 02:55 W 3 10.00 Fair CLR 33.8 25.7 72% 30.16 0.0
02 02:35 W 3 10.00 Fair CLR 33.8 26.1 73% 30.16 0.0
02 02:15 SW 5 10.00 Fair CLR 33.8 27 76% 30 30.17 0.0
02 01:55 SW 5 10.00 Fair CLR 32 28.4 87% 28 30.17 0.0
02 01:35 Calm 10.00 Fair CLR 34.5 26.8 73% 30.17 0.0
02 01:15 SW 3 10.00 Fair CLR 36 26.4 68% 30.17 0.0
02 00:55 SW 3 10.00 Fair CLR 34 29.5 54 34 84% 30.16 0.0
02 00:35 SW 3 10.00 Fair CLR 37.6 27.5 67% 30.16 0.0
02 00:15 SW 3 10.00 Fair CLR 36.9 26.2 65% 30.16 0.0
01 23:55 SW 3 10.00 Fair CLR 36.5 28.4 73% 30.16 0.0
01 23:35 Calm 10.00 Fair CLR 40.6 25.2 54% 30.16 0.0
01 23:15 Calm 10.00 Fair CLR 40.6 24.8 53% 30.16 0.0
01 22:55 Calm 10.00 Fair CLR 42.6 24.6 49% 30.16 0.0
01 22:35 Calm 10.00 Fair CLR 42.4 24.6 49% 30.16 0.0
01 22:15 Calm 10.00 Fair CLR 42.8 24.6 49% 30.16 0.0
01 21:55 Calm 10.00 Fair CLR 42.4 25.3 51% 30.15 0.0
01 21:35 NE 5 10.00 Fair CLR 43.2 25.2 49% 41 30.14 0.0
01 21:15 NE 6 10.00 Fair CLR 43.7 25.5 49% 41 30.14 0.0
01 20:55 NE 7 10.00 Fair CLR 45.1 25.2 46% 42 30.13 0.0
01 20:15 N 7 10.00 Fair CLR 50 23.4 35% 48 30.12 0.0
01 19:55 NE 8 10.00 Fair CLR 51.6 22.8 32% 30.12 0.0
01 19:35 N 7 10.00 Fair CLR 52.7 21.6 30% 30.11 0.0
01 19:15 N 9 10.00 Fair CLR 53.4 22.8 30% 30.11 0.0
01 18:55 N 12 10.00 Fair CLR 54 23 56.1 51.4 30% 30.11 0.0
01 18:35 N 14 G 17 10.00 Fair CLR 54.7 23.2 29% 30.11 0.0
01 18:15 N 9 G 17 10.00 Fair CLR 54.7 21.4 27% 30.11 0.0
01 17:55 N 13 G 17 10.00 Fair CLR 54.7 21.2 27% 30.11 0.0
01 17:35 N 8 G 17 10.00 Fair CLR 55 20.5 26% 30.11 0.0
01 17:15 N 12 G 20 10.00 Partly Cloudy SCT075 55.6 20.8 26% 30.11 0.0
01 16:55 N 9 G 16 10.00 Fair CLR 55 22.1 28% 30.1 0.0
01 16:35 NE 13 G 16 10.00 Fair CLR 55.8 23.5 29% 30.1 0.0
01 16:15 N 7 G 21 10.00 Fair CLR 54.9 22.1 28% 30.11 0.0
01 15:55 N 10 G 21 10.00 Fair CLR 55.6 22.6 28% 30.12 0.0
01 15:35 N 13 10.00 Fair CLR 53.8 22.3 29% 30.13 0.0
01 15:15 N 10 G 16 10.00 Fair CLR 54.9 21.4 27% 30.13 0.0
01 14:55 N 10 G 16 10.00 Fair CLR 55 23.4 29% 30.13 0.0
01 14:35 N 12 G 20 10.00 Partly Cloudy SCT060 55 23.5 29% 30.13 0.0
01 14:15 N 10 G 17 10.00 Partly Cloudy SCT060 53.8 23.5 31% 30.13 0.0
01 13:55 N 13 G 20 10.00 Partly Cloudy SCT060 53.4 24.3 32% 30.13 0.0
01 13:35 N 16 G 21 10.00 Fair CLR 52.7 24.6 34% 30.14 0.0
01 13:15 N 12 G 22 10.00 Fair CLR 52.9 24.8 34% 30.14 0.0
01 12:55 N 16 G 21 10.00 Fair CLR 51.4 23.7 51.6 32.5 34% 30.14 0.0
01 12:35 NE 7 G 17 10.00 Fair CLR 50.9 25 36% 30.14 0.0
01 12:15 NW 12 G 21 10.00 Fair CLR 51.1 25.9 38% 30.14 0.0
01 11:55 N 10 G 17 10.00 Fair CLR 50.2 26.1 39% 30.14 0.0
01 11:35 N 10 G 20 10.00 Fair CLR 49.6 25.2 38% 46 30.14 0.0
01 11:15 N 7 10.00 Fair CLR 48 26.8 44% 45 30.14 0.0
01 10:55 NE 9 10.00 Fair CLR 47.7 27.7 46% 44 30.14 0.0
01 10:35 N 12 G 18 10.00 Fair CLR 46.6 28 49% 42 30.14 0.0
01 10:15 N 14 10.00 Fair CLR 45.9 29.5 53% 40 30.14 0.0
01 09:55 N 10 10.00 Fair CLR 44.8 30.7 58% 40 30.15 0.0
01 09:35 N 7 10.00 Fair CLR 42.3 32.4 68% 38 30.15 0.0
01 09:15 N 8 10.00 Fair CLR 40.6 32.5 73% 36 30.15 0.0
01 08:55 N 9 10.00 Fair CLR 39.4 32.2 75% 34 30.14 0.0
01 08:35 N 10 10.00 Fair CLR 38.1 32 79% 32 30.14 0.0
01 08:15 N 8 10.00 Fair CLR 36.5 32 84% 31 30.14 0.0
01 07:55 N 8 10.00 Fair CLR 34.5 31.1 87% 29 30.14 0.0
01 07:35 NW 6 10.00 Fair CLR 34.9 31.1 86% 30 30.14 0.0
01 07:15 NW 6 10.00 Fair CLR 33.8 30.2 87% 29 30.13 0.0
01 06:55 NW 5 10.00 Fair CLR 32.4 29.7 42.4 32 90% 28 30.12 0.0
01 06:35 NW 5 10.00 Fair CLR 32 29.3 90% 28 30.12 0.0
01 06:15 NW 6 10.00 Fair CLR 32.4 29.7 90% 27 30.12 0.0
01 05:55 NW 3 10.00 Fair CLR 32.9 29.8 89% 30.12 0.0
01 05:35 NW 6 10.00 Fair CLR 34 30.2 86% 29 30.12 0.0
01 05:15 NW 7 10.00 Fair CLR 34.3 30.4 85% 29 30.12 0.0
01 04:55 NW 6 10.00 Fair CLR 34.9 30.7 85% 30 30.12 0.0
01 04:35 NW 8 10.00 Fair CLR 35.8 31.1 83% 30 30.12 0.0
01 04:15 NW 7 10.00 Fair CLR 36 31.1 83% 31 30.12 0.0
01 03:55 NW 7 10.00 Fair CLR 36 30.9 82% 31 30.11 0.0
01 03:35 NW 6 10.00 Fair CLR 35.8 30 80% 32 30.11 0.0
01 03:15 NW 6 10.00 Fair CLR 35.4 29.5 79% 31 30.1 0.0
01 02:55 NW 6 10.00 Fair CLR 35.2 29.7 80% 31 30.1 0.0
01 02:35 NW 6 10.00 Fair CLR 36.5 30 77% 32 30.1 0.0
01 02:15 NW 7 10.00 Fair CLR 37.8 30 74% 33 30.1 0.0
01 01:55 NW 7 10.00 Fair CLR 37.9 30.2 74% 33 30.1 0.0
01 01:35 NW 8 10.00 Fair CLR 39 30.6 72% 34 30.1 0.0
01 01:15 NW 10 10.00 Fair CLR 41.7 30.6 65% 36 30.1 0.0
01 00:55 W 7 10.00 Partly Cloudy SCT090 38.5 28.2 54.3 36.5 67% 34 30.09 0.0
01 00:35 W 6 10.00 Mostly Cloudy BKN090 38.1 28.4 68% 34 30.09 0.0
01 00:15 W 3 10.00 Partly Cloudy SCT090 39 27.7 64% 30.09 0.0
30 23:55 W 5 10.00 Fair CLR 36.5 29.3 75% 33 30.09 0.0
30 23:35 W 3 10.00 Fair CLR 41.2 27.5 58% 30.09 0.0
30 23:15 W 5 10.00 Fair CLR 41.2 28.2 60% 39 30.09 0.0
30 22:55 W 3 10.00 Partly Cloudy SCT080 SCT100 42.1 30.2 63% 30.09 0.0
30 22:35 Calm 10.00 Overcast SCT080 OVC100 41.7 31.8 68% 30.09 0.0
30 22:15 Calm 10.00 Partly Cloudy SCT090 SCT110 44.2 28.9 55% 30.09 0.0
30 21:55 Calm 10.00 Mostly Cloudy BKN090 45.5 28.8 52% 30.09 0.0
30 21:35 Calm 10.00 Overcast OVC080 45.9 28.6 51% 30.09 0.0
30 21:15 NW 5 10.00 Overcast OVC090 46.2 28.6 50% 45 30.08 0.0
30 20:55 N 3 10.00 Mostly Cloudy SCT090 BKN110 46 27.1 48% 30.07 0.0
30 20:35 NW 6 10.00 Partly Cloudy SCT110 46.9 27.1 46% 45 30.08 0.0
30 20:15 NW 9 10.00 Mostly Cloudy SCT090 BKN110 49.8 25.5 39% 47 30.08 0.0
30 19:55 NW 7 10.00 Partly Cloudy SCT075 SCT090 50.9 25.5 37% 30.08 0.0
30 19:35 NW 7 10.00 Fair CLR 51.4 24.6 35% 30.08 0.0
30 19:15 NW 12 G 16 10.00 Partly Cloudy SCT070 SCT085 53.4 22.6 30% 30.08 0.0
30 18:55 NW 9 10.00 Partly Cloudy SCT070 54.3 23.7 55.2 47.3 30% 30.08 0.0
30 18:35 NW 9 10.00 Fair CLR 54 22.1 29% 30.08 0.0
30 18:15 NW 9 10.00 Fair CLR 54.1 21 27% 30.09 0.0
30 17:55 W 7 10.00 Partly Cloudy SCT075 SCT090 54.1 21.9 28% 30.09 0.0
30 17:35 NW 7 10.00 Fair CLR 54.1 23.2 30% 30.09 0.0
30 17:15 NW 7 10.00 Partly Cloudy SCT070 SCT090 52.7 22.8 31% 30.1 0.0
30 16:55 NW 10 10.00 Mostly Cloudy SCT070 BKN090 54.1 24.1 31% 30.1 0.0
30 16:35 N 8 10.00 Mostly Cloudy BKN080 54.7 25.2 32% 30.11 0.0
30 16:15 N 5 10.00 Partly Cloudy SCT060 SCT090 52.7 25.2 34% 30.11 0.0
30 15:55 N 5 10.00 Partly Cloudy SCT060 SCT080 53.1 23.9 32% 30.12 0.0
30 15:35 N 6 10.00 Partly Cloudy SCT060 SCT090 53.1 24.6 33% 30.12 0.0
30 15:15 N 15 G 20 10.00 Overcast BKN060 BKN070 OVC090 51.1 24.8 36% 30.13 0.0
30 14:55 N 13 G 16 10.00 Overcast BKN055 OVC070 50.7 25.7 38% 30.13 0.0
Date Time (cdt) Wind (mph) Vis. (mi.) Weather Sky Cond. Air Dwpt Max. Min. Relative Humidity Wind Chill (°F) Heat Index (°F) altimeter (in) sea level (mb) 1 hr 3 hr 6 hr
6 hour
Temperature (ºF) Pressure Precipitation (in)